Погода в Вагае

Россия / Тюменская область     56°28′25″N   67°18′30″E
темп.,
°C
ветер,
м/с
пор.,
м/с
влажн.,
%
обл.,
%
осадки,
мм/ч
давл.,
гПа
погр.,
м
3 марта, ср
ср323:00−17ююз6139488 0.0 1008266
02:00−17ю51095100 0.0 1005256
05:00−16ююз61294100 0.0 1005340
08:00−15ююз61294100 0.1 1003385
11:00−10ююз71293100 0.9 1003614
14:00−7ююз71190100 0.2 1002702
17:00−5юз61291100 0.3 1002684
20:00−4юз61092100 0.1 1002618
4 марта, чт
чт423:00−5ююз5993100 0.1 1002459
02:00−7ююз479698 0.0 1000139
05:00−5ююз499697 0.1 1000286
08:00−5ююз41095100 0.1 998318
11:00−2ююз5895100 0.3 997567
14:00−1зюз4695100 0.6 996545
17:00−3зюз3791100 0.8 995324
20:00−5зюз61193100 0.1 997468
5 марта, пт
пт523:00−7з6138997 0.2 999441
02:00−12юз510922 0.0 1000166
05:00−13ююз5119432 0.0 1000273
08:00−9ююз71393100 0.6 999728
11:00−4зюз71292100 1.0 999983
14:00−2зюз81186100 0.3 10001094
17:00−3зюз61188100 0.4 1002710
20:00−5ююз4891100 0.0 1002146
6 марта, сб
сб623:00−3ю2498100 0.4 1002111
02:00−1юз41097100 1.5 1000479
05:00−2зюз4797100 2.6 999362
08:00−4с3697100 1.4 998247
11:00−5зсз71191100 2.6 1000582
14:00−7з8118788 0.1 1005723
17:00−9з7139090 0.1 1007624
20:00−12з61393100 0.1 1009364
7 марта, вс
вс723:00−15зюз479694 0.1 1010133
02:00−16зюз339692 0.0 101047
05:00−15юз239596 0.0 100930
08:00−15ссз0195100 0.0 100720
11:00−12ссв2289100 0.0 1007258
14:00−9ссз348699 0.0 1006553
17:00−10сз3591100 0.1 1008227
20:00−16з339232 0.0 101020